Regional Weather Roundup
Issued by NWS

Home | Current Version | Previous Version | Graphics & Text | Print | Product List | Glossary On
Versions: 1 2 3 4 5 6 7 8 9 10 11 12 13 14 15 16 17 18 19 20 21 22 23 24 25 26 27 28 29 30 31 32 33 34 35 36 37 38 39 40 41 42 43 44 45 46 47 48 49 50
000
ASUS43 KLOT 040421
RWRIL

ILLINOIS REGIONAL WEATHER ROUNDUP
NATIONAL WEATHER SERVICE CHICAGO/ROMEOVILLE IL
1100 PM CDT SUN MAY 03 2015

NOTE: "FAIR" INDICATES FEW OR NO CLOUDS BELOW 12,000 FEET WITH NO
SIGNIFICANT WEATHER AND/OR OBSTRUCTIONS TO VISIBILITY.

* THESE STATIONS ARE NOT UNDER NWS QUALITY CONTROL. THEY ALSO MAY NOT
  REPORT WEATHER SUCH AS PRECIPITATION OR FOG.

ILZ001-002-007-009-015-016-024-040500-
NORTHWEST ILLINOIS

CITY           SKY/WX    TMP DP  RH WIND       PRES   REMARKS
MOLINE         CLOUDY    74  53  48 S12       29.88S
STERLING*      CLOUDY    68  55  64 S3        29.90F
SAVANNA*       CLOUDY    66  59  79 S6        29.88F
$$

ILZ003-004-008-010-011-017-018-040500-
NORTH CENTRAL ILLINOIS

CITY           SKY/WX    TMP DP  RH WIND       PRES   REMARKS
ROCKFORD       TSTM      62  56  80 SE9       29.91F
FREEPORT*      CLOUDY    60  56  84 S9        29.90F
ROCHELLE*      CLOUDY    62  56  82 SE14      29.92S
DE KALB*       MOCLDY    60  55  84 S12       29.93S
PERU*          PTCLDY    66  51  58 S12       29.94R
$$

ILZ005-006-012>014-019>023-040500-
NORTHEAST ILLINOIS

CITY           SKY/WX    TMP DP  RH WIND       PRES   REMARKS
CHICAGO-OHARE  PTCLDY    62  54  74 S10       29.92S
CHICAGO-MIDWAY PTCLDY    68  54  60 S9        29.94R
AURORA         MOCLDY    62  55  77 S8        29.93S
LANSING*       PTCLDY    61  47  60 S8        29.96S
JOLIET*        PTCLDY    71  50  47 S12       29.94S
WAUKEGAN       PTCLDY    61  56  83 S9        29.90F
DUPAGE AIRPORT PTCLDY    59  55  87 S7        29.93S
KANKAKEE*      PTCLDY    67  48  50 S14       29.97R
WHEELING       MOCLDY    65  53  65 S10       29.93R
MORRIS*        PTCLDY    69  48  46 S16       29.93R
ROMEOVILLE*    CLEAR     61  54  77 S8        29.95R
NORTHERLY ISL    N/A     67  50  54 S9          N/A
$$

LMZ740>746-040500-
SOUTHERN LAKE MICHIGAN

STATION/POSITION SKY/WX   TEMP    WIND        PRES    VSBY  WAVE
                          AIR SEA DIR/SP/G                  HT/PER
                          (F)     (DEG/KT/KT) (MB)    (MI)  (FT/S)
HARRISON CRIB              63     180/ 23/ 24   N/A
BURNHAM HARBOR             67     180/  9/ 13   N/A
CALUMET HARBOR             67     130/  4/  9   N/A
BURNS HARBOR               70     170/  9/ 13 1014.6F
MICHIGAN CITY              70     170/ 11/ 13   N/A
MICHIGAN CITY 6N           61 51  190/ 10/ 10   N/A           1
ST. JOSEPH                 60 49  210/ 10/ 12   N/A           1
$$

ILZ025>027-034>036-040-047-049-050-058-095>099-040500-
WEST-CENTRAL ILLINOIS

CITY           SKY/WX    TMP DP  RH WIND       PRES   REMARKS
QUINCY         CLEAR     71  52  50 S12       29.91R
GALESBURG*     CLOUDY    69  54  57 S7        29.92S
MACOMB*        PTCLDY    68  53  59 SE5       29.95R
JACKSONVILLE*  PTCLDY    74  50  43 S12       29.93R
PITTSFIELD*    CLEAR     71  52  49 S9        29.94R
$$

ILZ028>032-037-038-041>044-048-051>054-059>061-040500-
CENTRAL ILLINOIS

CITY           SKY/WX    TMP DP  RH WIND       PRES   REMARKS
PONTIAC        CLEAR     71  47  42 S14       29.97R
BLOOMINGTON    PTCLDY    67  47  48 S12       29.99R
DECATUR        PTCLDY    69  45  41 S13       29.98R
PEORIA         CLEAR     70  49  47 S9        29.95R
LACON*         PTCLDY    71  48  43 S9G17     29.93S
LINCOLN*       PTCLDY    69  46  42 S8        29.95R
SPRINGFIELD    MOCLDY    72  48  42 S16G24    29.95R
TAYLORVILLE    PTCLDY    68  46  45 S17G23    29.97S
$$

ILZ033-039-045-046-055>057-062-063-040500-
EAST-CENTRAL ILLINOIS

CITY           SKY/WX    TMP DP  RH WIND       PRES   REMARKS
CHAMPAIGN      PTCLDY    67  45  45 S12       29.99S
DANVILLE*      CLEAR     64  46  51 S8        29.98S
RANTOUL*       PTCLDY    65  47  51 S8        29.99S
MATTOON        CLEAR     67  45  45 S9        30.00S
PARIS*         CLEAR     62  49  63 S8        30.02S
$$

ILZ079-100>102-040500-
SOUTHWEST ILLINOIS

CITY           SKY/WX    TMP DP  RH WIND       PRES   REMARKS
ALTON          MOCLDY    71  45  38 S8        29.97F
BELLEVILLE     MOCLDY    70  53  54 S8        29.97F
CAHOKIA*       MOCLDY    70  52  52 S8        29.96F
SPARTA*        PTCLDY    70  48  46 S12G18    30.01S
$$

ILZ064>066-069>071-074>076-080>082-084>086-088>090-092>094-040500-
SOUTH-CENTRAL ILLINOIS

CITY           SKY/WX    TMP DP  RH WIND       PRES   REMARKS
CARBONDALE     PTCLDY    65  47  52 S8        30.03F
CAIRO*         PTCLDY    69  47  46 S7        30.05S
EFFINGHAM*     CLEAR     68  40  35 SE7       30.02F
MARION         PTCLDY    68  46  45 S8        30.04F
MT. VERNON     PTCLDY   N/A N/A N/A S6        30.03F
CENTRALIA*     PTCLDY    65  46  48 S13       30.01F
SALEM*         PTCLDY    71  44  37 S9        30.01F
METROPOLIS*    PTCLDY    68  49  49 S5        30.06S
$$

ILZ067-068-072-073-078-083-087-091-040500-
SOUTHEAST ILLINOIS

CITY           SKY/WX    TMP DP  RH WIND       PRES   REMARKS
LAWRENCEVILLE  CLEAR     58  50  75 S8        30.04F
FLORA*         CLEAR     60  47  61 S8        30.03F
FAIRFIELD*     CLEAR     64  48  56 S6        30.03F
HARRISBURG*    CLEAR     64  48  54 S6        30.06F
ROBINSON*      CLEAR     62  49  63 S8        30.04S
CARMI*         CLEAR     60  48  64 S6        30.05S
$$

ABBREVIATIONS USED IN REMARKS
   TC - TEMPERATURE IN CELSIUS
  WCI - WIND CHILL INDEX
   HX - HEAT INDEX
  VSB - VISIBILITY
$$



USA.gov is the U.S. government's official web portal to all federal, state and local government web resources and services.